Zurück zum Katalog

COSMOS 970 DEB

AktivLEO
NORAD 12867·DEBRIS·🇷🇺 Russia

Gestartet Dec 21, 1977 von Baikonur Cosmodrome

Loading…

Nächste Überflüge (nächste 24 Stunden)

TLE

AktuellSource: Space-Track

Epoche: Sep 14, 2026, 04:55 UTC

1 12867U 77121AV  26257.20510231  .00000214  00000-0  53880-3 0  9992
2 12867  65.9475 181.8938 0079309 146.7652   1.4694 13.37071124298258

Verfolge COSMOS 970 DEB in Echtzeit mit AllMySat

Download on the App Store